| time (UTC) | temp F | wind direction | speed knots | gust knots | rain 1hr in | rain 24hr in | rain mn in | humidity % | barometer mb |
| 20260506113019 | 38 | 231 | 6.1 | 8.7 | 0.00 | 0.00 | 0.00 | 75 | 1015.8 |
| 20260506111521 | 39 | 244 | 5.2 | 7.8 | 0.00 | 0.00 | 0.00 | 73 | 1015.8 |
| 20260506110019 | 39 | 238 | 4.3 | 7.8 | 0.00 | 0.00 | 0.00 | 71 | 1015.6 |
| 20260506104515 | 39 | 244 | 5.2 | 7.8 | 0.00 | 0.00 | 0.00 | 71 | 1015.5 |
| 20260506103021 | 38 | 257 | 5.2 | 7.8 | 0.00 | 0.00 | 0.00 | 74 | 1015.3 |
| 20260506101522 | 41 | 259 | 2.6 | 6.1 | 0.00 | 0.00 | 0.00 | 70 | 1015.3 |
| 20260506100020 | 41 | 254 | 3.5 | 5.2 | 0.00 | 0.00 | 0.00 | 70 | 1015.3 |
| 20260506094516 | 42 | 254 | 4.3 | 6.1 | 0.00 | 0.00 | 0.00 | 69 | 1015.4 |
| 20260506093027 | 42 | 252 | 1.7 | 4.3 | 0.00 | 0.00 | 0.00 | 70 | 1015.2 |
| 20260506091517 | 44 | 240 | 4.3 | 8.7 | 0.00 | 0.00 | 0.00 | 66 | 1015.1 |
| 20260506090017 | 45 | 257 | 6.1 | 7.8 | 0.00 | 0.00 | 0.00 | 65 | 1015.0 |
| 20260506084518 | 45 | 259 | 5.2 | 7.0 | 0.00 | 0.00 | 0.00 | 66 | 1015.1 |
| 20260506083019 | 46 | 253 | 3.5 | 7.8 | 0.00 | 0.00 | 0.00 | 66 | 1014.8 |
| 20260506081516 | 46 | 302 | 3.5 | 7.8 | 0.00 | 0.00 | 0.00 | 67 | 1014.7 |
| 20260506073011 | 46 | 290 | 0.9 | 3.5 | 0.00 | 0.00 | 0.00 | 73 | 1014.9 |
| 20260506071512 | 45 | 271 | 0.9 | 3.5 | 0.00 | 0.00 | 0.00 | 75 | 1015.0 |
| 20260506061510 | 46 | 311 | 6.1 | 9.6 | 0.00 | 0.00 | 0.00 | 75 | 1014.7 |
| 20260506044517 | 50 | 306 | 6.1 | 13.0 | 0.00 | 0.00 | 0.00 | 63 | 1014.4 |
| 20260506043003 | 50 | 280 | 7.0 | 15.6 | 0.00 | 0.00 | 0.00 | 61 | 1014.2 |
| 20260506041506 | 50 | 241 | 6.1 | 8.7 | 0.00 | 0.00 | 0.00 | 69 | 1014.0 |
| 20260506040017 | 49 | 292 | 2.6 | 5.2 | 0.00 | 0.00 | 0.00 | 1013.8 | |
| 20260506034516 | 49 | 240 | 3.5 | 6.1 | 0.00 | 0.00 | 0.00 | 67 | 1013.6 |
| 20260506033013 | 49 | 217 | 4.3 | 8.7 | 0.00 | 0.00 | 0.00 | 65 | 1013.4 |
| 20260506031506 | 49 | 246 | 4.3 | 6.1 | 0.00 | 0.00 | 0.00 | 62 | 1013.2 |
| 20260506030009 | 50 | 241 | 3.5 | 8.7 | 0.00 | 0.00 | 0.00 | 59 | 1013.0 |
| 20260506024513 | 50 | 260 | 3.5 | 8.7 | 0.00 | 0.00 | 0.00 | 61 | 1012.9 |
| 20260506023016 | 51 | 244 | 7.0 | 11.3 | 0.00 | 0.00 | 0.00 | 58 | 1012.7 |
| 20260506021514 | 52 | 219 | 10.4 | 20.9 | 0.00 | 0.00 | 0.00 | 57 | 1012.6 |
| 20260506020008 | 53 | 217 | 6.1 | 7.8 | 0.00 | 0.00 | 0.00 | 56 | 1012.6 |
| 20260506014511 | 53 | 250 | 3.5 | 7.0 | 0.00 | 0.00 | 0.00 | 56 | 1011.8 |
| 20260506013012 | 54 | 281 | 3.5 | 7.8 | 0.00 | 0.00 | 0.00 | 54 | 1011.3 |
| 20260506011512 | 57 | 285 | 7.8 | 11.3 | 0.00 | 0.00 | 0.00 | 49 | 1011.2 |
| 20260506010017 | 58 | 290 | 6.1 | 12.2 | 0.00 | 0.00 | 0.00 | 50 | 1011.2 |
| 20260506004519 | 59 | 266 | 6.1 | 15.6 | 0.00 | 0.00 | 0.00 | 49 | 1011.2 |
| 20260506003012 | 59 | 277 | 6.1 | 12.2 | 0.00 | 0.00 | 0.00 | 50 | 1011.0 |
| 20260506001512 | 60 | 319 | 10.4 | 14.8 | 0.00 | 0.00 | 0.00 | 49 | 1010.9 |
| 20260506000012 | 60 | 248 | 6.1 | 13.0 | 0.00 | 0.00 | 0.00 | 49 | 1010.9 |
| 20260505234511 | 60 | 292 | 7.8 | 21.7 | 0.00 | 0.00 | 0.00 | 51 | 1010.9 |
| 20260505233011 | 60 | 296 | 12.2 | 19.1 | 0.00 | 0.00 | 0.00 | 52 | 1010.8 |
| 20260505231513 | 60 | 255 | 8.7 | 17.4 | 0.00 | 0.00 | 0.00 | 51 | 1010.7 |
| 20260505230028 | 60 | 290 | 14.8 | 21.7 | 0.00 | 0.00 | 0.00 | 49 | 1010.8 |
| 20260505224512 | 59 | 275 | 11.3 | 26.1 | 0.00 | 0.00 | 0.00 | 50 | 1010.9 |
| 20260505223009 | 61 | 289 | 13.9 | 20.0 | 0.00 | 0.00 | 0.00 | 45 | 1011.4 |
| 20260505221512 | 61 | 289 | 11.3 | 16.5 | 0.00 | 0.00 | 0.00 | 48 | 1010.9 |
| 20260505220014 | 63 | 301 | 9.6 | 17.4 | 0.00 | 0.00 | 0.00 | 45 | 1010.8 |
| 20260505214515 | 64 | 325 | 13.0 | 18.2 | 0.00 | 0.00 | 0.00 | 45 | 1010.7 |
| 20260505213016 | 63 | 315 | 12.2 | 24.3 | 0.00 | 0.00 | 0.00 | 45 | 1011.1 |
| 20260505211516 | 62 | 292 | 17.4 | 25.2 | 0.00 | 0.00 | 0.00 | 43 | 1011.3 |
| 20260505210014 | 63 | 272 | 15.6 | 22.6 | 0.00 | 0.00 | 0.00 | 47 | 1011.6 |
| 20260505204507 | 61 | 238 | 10.4 | 15.6 | 0.00 | 0.00 | 0.00 | 49 | 1011.7 |
| 20260505203014 | 60 | 214 | 15.6 | 20.9 | 0.00 | 0.00 | 0.00 | 52 | 1012.3 |
| 20260505201513 | 63 | 249 | 14.8 | 29.5 | 0.00 | 0.00 | 0.00 | 42 | 1011.7 |
| 20260505200012 | 65 | 219 | 13.9 | 26.1 | 0.00 | 0.00 | 0.00 | 41 | 1011.9 |
| 20260505194513 | 63 | 225 | 15.6 | 22.6 | 0.00 | 0.00 | 0.00 | 45 | 1012.0 |
| 20260505193009 | 62 | 219 | 17.4 | 21.7 | 0.00 | 0.00 | 0.00 | 45 | 1012.4 |
| 20260505191513 | 60 | 194 | 16.5 | 23.5 | 0.00 | 0.00 | 0.00 | 50 | 1012.8 |
| 20260505190015 | 60 | 225 | 16.5 | 21.7 | 0.00 | 0.00 | 0.00 | 52 | 1013.0 |
| 20260505184512 | 60 | 192 | 17.4 | 26.1 | 0.00 | 0.00 | 0.00 | 53 | 1013.1 |
| 20260505183014 | 59 | 199 | 15.6 | 23.5 | 0.00 | 0.00 | 0.00 | 57 | 1013.3 |
| 20260505181510 | 58 | 209 | 15.6 | 21.7 | 0.00 | 0.00 | 0.00 | 58 | 1013.4 |
| 20260505180011 | 55 | 213 | 13.0 | 18.2 | 0.00 | 0.00 | 0.00 | 61 | 1013.6 |
| 20260505174518 | 55 | 207 | 10.4 | 14.8 | 0.00 | 0.00 | 0.00 | 65 | 1013.8 |
| 20260505173014 | 54 | 198 | 11.3 | 14.8 | 0.00 | 0.00 | 0.00 | 71 | 1013.8 |
| 20260505171511 | 52 | 198 | 8.7 | 13.0 | 0.00 | 0.00 | 0.00 | 71 | 1013.8 |
| 20260505170012 | 52 | 194 | 8.7 | 12.2 | 0.00 | 0.00 | 0.00 | 71 | 1014.0 |
| 20260505164512 | 51 | 200 | 6.1 | 10.4 | 0.00 | 0.00 | 0.00 | 77 | 1014.0 |
| 20260505163014 | 50 | 215 | 9.6 | 13.9 | 0.00 | 0.00 | 0.00 | 79 | 1014.2 |
| 20260505161514 | 50 | 219 | 9.6 | 13.0 | 0.00 | 0.00 | 0.00 | 76 | 1014.3 |
| 20260505153028 | 52 | 220 | 8.7 | 13.9 | 0.00 | 0.00 | 0.00 | 64 | 1013.9 |
| 20260505151514 | 54 | 226 | 10.4 | 13.9 | 0.00 | 0.00 | 0.00 | 57 | 1014.0 |
| 20260505124530 | 52 | 217 | 6.1 | 8.7 | 0.00 | 0.00 | 0.00 | 54 | 1013.5 |
| 20260505123017 | 52 | 223 | 4.3 | 6.1 | 0.00 | 0.00 | 0.00 | 53 | 1013.3 |
| 20260505121518 | 53 | 234 | 3.5 | 7.0 | 0.00 | 0.00 | 0.00 | 51 | 1013.3 |
| 20260505120023 | 53 | 198 | 6.1 | 8.7 | 0.00 | 0.00 | 0.00 | 52 | 1013.5 |
| 20260505114530 | 52 | 215 | 5.2 | 7.0 | 0.00 | 0.00 | 0.00 | 52 | 1013.4 |